Location: Axtheid
(49.6213°N, 11.8205°E)
Time: 22:28:12
(UTC+00:00)

Cosmos 1340 - Visible Passes

Search period start: 07 May 2021 00:00
Search period end: 17 May 2021 00:00
Orbit: 499 x 505 km, 81.2° (Epoch: 06 May)

Date Brightness Start Highest point End Pass type
(mag) Time Alt. Az. Time Alt. Az. Time Alt. Az.
07 May 5.4 02:12:22 10° SE 02:14:56 18° E 02:17:29 10° NE visible
08 May 5.5 01:53:40 10° ESE 01:55:37 14° E 01:57:34 10° NE visible
09 May 5.7 01:35:33 10° E 01:36:20 11° E 01:37:07 10° ENE visible
10 May 2.7 02:48:07 10° S 02:51:52 87° ESE 02:55:39 10° NNE visible
11 May 3.0 02:28:45 10° S 02:32:27 65° E 02:36:12 10° NNE visible
12 May 3.5 02:09:28 10° S 02:13:03 48° E 02:16:42 10° NNE visible
13 May 4.0 01:50:14 10° SSE 01:53:41 36° E 01:57:09 10° NNE visible
14 May 4.4 01:31:06 10° SSE 01:34:19 28° E 01:37:33 10° NNE visible
15 May 4.8 01:12:04 10° SE 01:14:58 22° E 01:17:53 10° NE visible
15 May 3.6 02:46:58 10° SW 02:50:22 32° WNW 02:53:47 10° N visible
16 May 5.1 00:53:11 10° SE 00:55:38 17° E 00:58:05 10° NE visible
16 May 3.2 02:27:28 11° SW 02:30:53 42° WNW 02:34:29 10° N visible
